Voltar ao catálogo

STARLINK-36049

AtivoComunicaçõesVLEO
NORAD 66805·PAYLOAD·🇺🇸 United States

Lançado Dec 1, 2025 de Cape Canaveral Space Force Station

Loading…

Próximas Passagens (próximas 24 horas)

TLE

AtualizadoSource: CelesTrak SupGP

Época: Sep 15, 2026, 03:23 UTC

1 66805C 25278Q   26258.14145833  .00056546  00000+0  20486-2 0  2586
2 66805  43.0013 124.7422 0001437 277.1510 307.3453 15.27542003    13

Acompanhe STARLINK-36049 em tempo real com AllMySat

Download on the App Store